www.pogodaiklimat.ru
ПОГОДА в Крествью
Время
и дата
13:53 22.05
14:53 22.05
15:22 22.05
15:28 22.05
15:33 22.05
15:36 22.05
15:53 22.05
16:25 22.05
16:53 22.05
17:30 22.05
17:42 22.05
17:53 22.05
18:16 22.05
18:53 22.05
19:53 22.05
20:10 22.05
20:53 22.05
21:19 22.05
21:39 22.05
21:51 22.05
21:53 22.05
22:22 22.05
22:45 22.05
22:53 22.05
23:05 22.05
00:53 23.05
01:53 23.05
04:44 23.05
04:51 23.05
04:53 23.05
05:01 23.05
05:53 23.05
06:53 23.05
07:53 23.05
08:53 23.05
09:14 23.05
09:53 23.05
10:25 23.05
10:53 23.05
11:48 23.05
11:53 23.05
11:56 23.05
12:06 23.05
12:14 23.05
12:53 23.05
13:53 23.05
14:53 23.05
15:53 23.05
Ветер
(напр.,м/с)
Видим. Явления Облачность Т
(С)
Тd
(С)
f
(%)
Тe
(С)
Тes
(С)
Комфортность P
(гПа)
Po
(гПа)
Тmin
(С)
Tmax
(С)
R
(мм)
R24
(мм)
S
(см)
В 1 16 км ясно +26.7 +22.2 76 +35 +54 опасность
солнечного
удара
1019.6 1012.0
В 1 16 км 5/5 1950 м +25.0 +22.2 84 +32 +40 очень
душно
1019.4 1011.7
Ю 4
{7}
2 км сильный дождь, дымка 8/5 810 м
[Ac]
+23.3 +21.7 91 +32 +32 очень
душно
1014.0
В 1
{7}
800 м сильный дождь, туман 10/8 450 м
[Ac]
+21.7 +21.1 96 +28 +29 душно 1012.7
Ю 1 2 км дождь, дымка 10/2 360 м
[Ac]
+21.7 +21.1 96 +28 +32 душно 1013.0
Ю 1 5 км дождь, дымка 10/5 300 м
[Ac]
+21.1 +20.6 97 +26 +29 душно 1013.0
штиль 0 5 км сильный дождь, дымка 10/2 540 м
[Ac]
+21.7 +20.6 93 +27 +34 душно 1020.8 1013.0
В 1 8 км дождь, дымка 10/2 180 м
[Ac]
+21.7 +21.1 96 +28 +30 душно 1012.4
В 1 11 км дождь 5/0 3300 м
[Ac]
+21.1 +20.6 97 +26 +30 душно 1019.6 1012.0
В 1 14 км слабый дождь 8/5 210 м
[Ac]
+21.1 +20.6 97 +26 +27 душно 1011.4
В 1 16 км слабый дождь 8/8 150 м
[Ac]
+21.1 +20.6 97 +26 +27 душно 1011.4
В 1 16 км 8/8 150 м +21.1 +20.6 97 +26 +27 душно 1018.9 1011.4 +21.1 +27.2 19.6
В 1 16 км 5/5 150 м +20.6 +20.6 100 +26 +26 душно 1011.0
В 1 16 км 2/2 120 м +20.6 +20.0 96 +26 +26 душно 1018.2 1010.7
В 1 16 км 5/5 720 м +20.6 +20.0 96 +25 +25 комфорт 1017.9 1010.3
В 1 16 км 8/8 600 м +20.6 +20.0 96 +25 +25 комфорт 1010.0
В 1 16 км слабый дождь 10/10 480 м +20.6 +20.0 96 +25 +25 комфорт 1017.4 1009.7 0.3
В 1 8 км дождь, дымка 10/10 420 м +20.0 +20.0 100 +24 +24 комфорт 1009.7
нст 1 4 км сильный дождь, дымка 10/10 180 м +20.0 +20.0 100 +24 +24 комфорт 1010.0
В 1 13 км слабый дождь 10/10 270 м +21.0 +20.0 94 +27 +27 душно 1009.7
В 1 16 км слабый дождь 10/10 270 м +20.6 +20.0 96 +26 +26 душно 1017.4 1009.7
В 2 16 км 10/10 210 м +20.6 +20.6 100 +25 +25 комфорт 1009.7
В 2 16 км 10/8 540 м
[Ac]
+21.1 +20.6 97 +26 +26 душно 1009.3
ЮВ 2
{4}
16 км 10/8 420 м
[Ac]
+21.1 +20.6 97 +26 +26 душно 1016.9 1009.3
В 2
{4}
16 км 10/8 270 м
[Ac]
+21.1 +21.1 100 +26 +26 душно 1009.0
Ю 3
{6}
8 км слабый дождь, дымка 10/8 480 м
[Ac]
+23.9 +22.8 94 +32 +32 очень
душно
1015.7 1008.0
ЮЗ 3
{4}
16 км 8/8 480 м +23.9 +22.8 94 +32 +32 очень
душно
1016.1 1008.3
З 1 16 км 8/8 270 м +22.2 +21.7 97 +29 +29 очень
душно
1009.7
СЗ 1 16 км 8/8 300 м +22.0 +22.0 100 +29 +29 очень
душно
1009.7
З 1 16 км 8/8 300 м +22.2 +21.7 97 +29 +29 очень
душно
1017.3 1009.7
З 1 16 км 2/2 300 м +22.2 +21.1 93 +29 +29 очень
душно
1009.7
З 1 16 км 5/0 3600 м
[Ac]
+22.2 +21.1 93 +29 +29 очень
душно
1018.0 1010.3 +22.2 +23.9 2.0 38.1
штиль 0 16 км слабый дождь 8/0 2100 м
[Ac]
+22.2 +21.7 97 +29 +30 очень
душно
1018.6 1011.0
штиль 0 16 км слабый дождь 8/0 2700 м
[Ac]
+22.8 +21.7 94 +31 +33 очень
душно
1018.2 1010.7
штиль 0 16 км ясно +23.9 +22.2 90 +31 +43 очень
душно
1018.5 1011.0 0.3
Ю 1 16 км 2/2 180 м +24.4 +22.8 91 +32 +43 очень
душно
1011.0
Ю 1 16 км 5/5 330 м +25.0 +22.8 88 +33 +40 очень
душно
1019.3 1011.7
ЮЗ 1 16 км 2/2 270 м +25.6 +22.8 85 +34 +48 очень
душно
1011.4
ЮЗ 1 16 км 2/2 330 м +25.6 +22.2 82 +33 +45 очень
душно
1019.2 1011.7
ЮЗ 5
{9}
8 км слабый дождь, дымка 10/10 450 м +22.0 +20.0 88 +28 +28 душно 1012.7
ЮЗ 4
{9}
2 км сильный дождь, дымка 10/10 450 м +21.1 +20.6 97 +26 +26 душно 1020.3 1012.7 +21.1 +26.1 0.3
ЮЗ 4
{7}
1 км сильный дождь, дымка 10/10 360 м +21.1 +20.6 97 +26 +26 душно 1012.7
ЮЗ 3
{5}
3 км дождь, дымка 10/8 420 м
[Ac]
+21.1 +20.6 97 +26 +27 душно 1012.7
З 2
{4}
14 км слабый дождь 10/8 420 м
[Ac]
+21.0 1012.7
ЮЗ 2 16 км слабый дождь 10/5 1350 м
[Ac]
+22.0 1019.9 1012.4
штиль 0 13 км слабый дождь 10/0 3300 м
[Ac]
+22.0 1017.7 1010.0
В 1 16 км ясно +24.4 +23.3 94 +33 +46 очень
душно
1015.4 1008.0 4.8
штиль 0 16 км 5/0 3300 м
[Ac]
+26.1 +20.6 72 +33 +43 очень
душно
1015.5 1008.0
Местоположение метеостанции Sikes Airport: широта 30.7722 долгота -86.5200 высота над уровнем моря 65 м.
В архиве по умолчанию представлена погода в Крествью за последние 1-2 суток. Обновление информации о фактической погоде в базе происходит ежечасно! Архивные данные за месяц целиком и за предыдущие месяцы Вы можете получить, выбрав интересующий диапазон дат из раскрывающегося списка и нажав кнопку "Ввод!".
Внимание! Архив погоды МЕТАР в базе сайта по станциям, не включенным в климатический монитор, хранится не более 60 дней. Нет смысла пытаться выбрать более раннюю дату.
*Определитесь, кто Вы:
Внимание! Время в таблицах - местное (без учета летнего времени). Для получения всемирного времени необходимо вычесть поправку, которая равна -6 ч.
Смотрите также архив погоды в соседних городах и на ближайших метеорологических станциях:
Партнеры нашего сайта:      
Пояснения к столбцам:
  • Ветер - указаны скорость ветра в м/с - средняя за 10 мин, порывы в срок и между сроками (в фигурных скобках) и направление, откуда дует ветер: С - северный,
  • СВ - северо-восточный, В - восточный, ЮВ - юго-восточный, Ю - южный, ЮЗ - юго-западный, З - западный, СЗ - северо-западный.
  • Видимость - горизонтальная дальность видимости в метрах или километрах. При видимости от 1 до 10 км при отсутствии осадков обычно наблюдается дымка, при ухудшении видимости до 1 км и менее - туман. В сухую погоду видимость может ухудшаться дымом, пылью или мглою.
  • Явления - указаны атмосферные явления, наблюдавшиеся в срок или в последний час перед сроком; фигурными скобками обозначены явления, наблюдавшиеся между сроками (за 1-3 часа до срока); квадратными скобками обозначены град или гололедные отложения с указанием их диаметра в мм.
  • Облачность - указаны через наклонную черту общая и нижняя облачность в баллах и высота нижней границы облаков в метрах; квадратными скобками обозначены формы облаков: Ci - перистые, Cs - перисто-слоистые, Cc - перисто-кучевые, Ac - высококучевые, As - высокослоистые, Sc - слоисто-кучевые, Ns - слоисто-дождевые, Cu - кучевые, Cb - кучево-дождевые. Подробнее классификацию облаков см. в Атласе облаков (PDF).
  • T - Температура воздуха - температура, измеренная на высоте 2 м над землей.
  • Td - Температура точки росы - температура, при понижении до которой содержащийся в воздухе водяной пар достигнет насыщения.
  • f - Относительная влажность воздуха - влажноcть воздуха, измеренная на высоте 2 м над землей.
  • Te - Эффективная температура - температура, которую ощущает одетый по сезону человек в тени. Характеристика душности погоды. При расчете учитывается влияние влажности воздуха и скорости ветра на теплоощущения человека.
  • Tes - Эффективная температура на солнце - температура, которую ощущает человек, с поправкой на солнечный нагрев. Характеристика знойности погоды. Зависит от высоты солнца над горизонтом, облачности и скорости ветра. Ночью, в пасмурную погоду, а также при ветре 12 м/с и более поправка равна нулю.
  • P - Атмосферное давление - приведенное к уровню моря атмосферное давление.
  • Po - Атмосферное давление - измеренное на уровне метеостанции атмосферное давление.
  • Tmin - Минимальная температура - минимум температуры воздуха на высоте 2 м над землей.
  • Tmax - Максимальная температура - максимум температуры воздуха на высоте 2 м над землей.
  • R - Количество осадков - Количество выпавших осадков за период времени, мм. При наведении курсора мыши на число - период времени, за который выпало указанное количество осадков.
  • R24 - Количество осадков - Количество выпавших осадков за 24 часа, мм.
  • S - Снежный покров - Высота снежного покрова, см. При наведении курсора мыши на число - состояние снежного покрова и степень покрытия местности в баллах.